GFSNIL_con_3kmhel_000.txt.gz
Helicity
189 179 186 196 190 178 174 160 210 263 278 308 203 92 137 19 87 134 101 101 92 99
168 160 138 143 137 144 153 196 232 348 366 178 257 229 220 88 104 111 108 65 93 104
125 119 104 78 84 105 134 189 266 329 274 283 138 78 67 91 95 96 106 111 111 111
94 71 68 68 70 75 102 177 281 297 234 121 98 84 94 92 70 95 118 117 119 105
65 57 51 52 50 59 135 188 197 196 141 128 109 83 85 80 94 113 106 96 98 100
48 50 42 46 60 95 137 174 147 136 130 154 98 86 89 87 107 89 79 90 121 145
59 37 45 72 89 114 134 133 142 135 120 99 90 85 115 101 72 87 110 135 164 179
60 65 82 99 115 128 126 121 115 115 131 83 109 125 103 88 106 111 133 156 163 169
109 106 117 128 127 118 117 128 134 143 119 129 139 143 119 117 115 121 148 146 157 163
139 133 139 131 125 124 124 129 128 109 111 180 166 157 154 155 124 134 135 144 146 145
164 155 148 134 122 123 127 105 121 139 135 157 132 147 129 102 107 105 95 103 121 138
166 162 149 136 115 111 116 139 154 146 165 151 129 109 93 100 94 79 72 80 120 127
167 163 151 133 108 117 126 138 186 186 152 147 120 107 94 95 87 75 77 95 105 85
166 173 160 137 130 124 149 186 175 174 155 145 121 91 82 73 69 74 79 87 97 86

GFSNIL_con_3kmhel_003.txt.gz
Helicity
184 155 111 87 79 91 109 111 111 169 287 343 261 223 108 73 95 117 103 103 80 66
108 73 52 55 65 75 78 87 111 179 246 260 228 126 106 126 142 120 101 82 95 94
68 49 64 71 70 66 78 89 113 187 213 192 120 101 116 111 95 92 93 107 114 102
86 79 64 65 73 83 87 106 122 151 170 138 107 94 105 92 76 82 86 97 94 83
100 70 60 63 71 81 91 122 155 155 143 95 92 96 99 78 73 77 70 63 77 78
88 68 65 69 73 78 92 109 122 133 111 98 90 108 91 95 105 80 69 69 77 87
86 88 76 78 82 94 102 109 129 119 89 80 113 92 98 126 101 104 80 78 97 111
117 100 101 107 95 98 107 128 113 81 111 128 103 117 143 132 117 93 73 84 96 109
137 129 139 122 110 119 118 118 123 112 129 131 106 126 189 149 115 89 84 90 95 102
166 159 145 129 113 112 118 112 116 128 127 142 163 158 148 128 95 85 92 88 90 97
169 159 155 127 116 121 116 112 121 134 140 154 158 130 116 92 79 85 82 75 76 79
165 169 157 130 130 123 123 109 106 130 159 155 147 136 108 83 85 77 63 64 64 67
157 166 162 149 144 142 131 113 141 169 180 174 150 135 113 89 79 64 59 50 51 67
155 167 163 166 173 158 118 123 158 178 168 147 143 135 107 87 67 64 57 54 52 56

GFSNIL_con_3kmhel_006.txt.gz
Helicity
122 143 121 87 84 82 92 90 83 83 101 165 199 267 203 81 124 145 113 103 96 83
151 108 60 52 77 95 87 84 87 88 109 168 185 119 108 139 133 127 92 75 62 70
117 76 74 91 88 77 80 82 83 90 121 158 120 121 129 112 116 104 70 64 79 68
110 105 103 84 77 74 67 74 73 90 126 102 109 88 81 102 92 74 61 66 72 69
132 115 95 80 67 71 64 73 78 90 97 80 83 71 101 87 65 76 84 75 71 68
106 93 90 78 78 76 75 74 74 81 102 93 92 92 91 80 70 101 100 89 67 59
87 94 90 90 84 88 88 94 100 88 87 105 97 101 106 112 99 121 110 81 69 64
87 90 103 103 105 105 94 96 110 127 133 113 111 124 104 95 76 121 85 68 77 83
97 106 113 120 122 99 94 107 105 100 98 112 135 166 135 126 79 78 70 82 80 80
109 111 119 132 118 120 109 109 102 89 84 104 139 140 128 94 70 76 85 80 77 76
108 116 120 128 123 128 115 108 111 103 99 108 183 139 119 78 64 74 79 77 69 70
115 116 124 130 128 119 128 109 113 115 110 124 180 151 120 71 78 79 67 67 63 69
115 127 130 129 125 125 138 132 139 118 121 177 163 159 121 85 83 77 61 58 58 81
113 131 131 130 129 132 140 164 160 131 127 140 137 143 123 98 70 67 64 62 58 58

GFSNIL_con_3kmhel_009.txt.gz
Helicity
174 227 165 177 124 98 111 125 112 99 89 97 170 216 192 103 80 71 87 205 114 97
142 108 175 120 94 119 116 101 103 75 81 195 118 109 69 123 82 101 147 109 73 80
102 135 130 118 126 111 92 80 83 80 78 126 132 106 81 80 107 83 115 113 78 70
108 147 111 124 113 101 79 74 83 97 99 99 111 63 77 87 53 81 115 97 74 83
161 126 128 122 107 95 66 80 88 101 107 84 87 79 101 70 64 62 71 64 100 124
160 129 117 106 102 82 87 84 83 93 100 107 120 94 62 58 69 68 98 120 142 132
165 120 114 102 98 102 90 86 94 102 132 97 106 79 69 76 88 95 77 93 119 96
147 100 81 107 97 111 104 93 87 131 105 106 109 161 150 90 80 97 90 79 85 84
118 82 98 104 98 92 93 118 102 127 124 121 96 278 182 117 87 74 83 92 92 81
82 83 93 77 81 93 131 131 111 131 107 136 158 232 176 119 84 77 85 86 80 78
92 75 71 81 81 111 125 128 145 121 123 122 274 263 172 110 70 89 90 86 78 73
76 82 76 82 95 113 125 119 136 111 147 130 228 249 172 101 86 92 88 80 71 98
73 76 69 85 98 105 120 114 131 155 167 177 193 240 163 104 92 91 84 66 79 125
74 66 74 83 99 101 107 119 197 235 162 141 123 198 162 117 89 89 80 76 81 97

GFSNIL_con_3kmhel_012.txt.gz
Helicity
307 279 295 218 201 152 196 147 126 143 135 124 201 186 231 229 210 170 136 175 170 185
284 344 273 197 195 212 166 118 148 143 120 112 200 215 193 176 174 166 143 233 172 132
294 208 195 165 205 190 140 128 124 123 116 116 167 201 181 174 163 178 155 117 130 239
257 183 154 159 205 169 133 107 110 112 125 129 133 133 157 161 121 181 118 86 123 125
249 158 142 174 199 168 123 111 106 110 110 89 106 206 154 151 137 157 190 119 97 139
231 163 151 175 161 136 118 117 111 107 73 101 171 159 99 108 187 164 143 101 100 81
217 167 193 179 135 114 117 130 100 76 60 155 138 131 142 188 213 160 164 142 132 116
274 283 206 136 112 111 148 104 58 39 73 168 168 136 229 216 173 163 151 137 138 145
354 293 319 214 131 122 95 66 110 83 88 152 224 241 246 204 172 128 122 133 125 139
413 421 165 67 72 64 76 115 139 124 150 178 315 291 261 212 159 126 118 123 136 129
411 261 53 86 88 83 123 146 166 169 167 225 305 287 269 206 150 134 129 143 121 122
106 179 97 87 70 103 116 146 167 175 213 340 338 264 237 176 169 144 130 122 106 111
250 71 80 78 89 101 125 155 160 213 317 357 338 237 210 175 171 144 128 110 95 142
66 99 64 85 118 123 123 122 138 233 260 281 255 200 167 167 145 130 133 107 93 154

GFSNIL_con_3kmhel_015.txt.gz
Helicity
433 399 352 308 267 220 199 195 217 203 178 151 132 183 155 130 142 154 159 147 149 222
422 401 367 323 295 268 241 157 170 156 152 134 166 165 161 133 125 140 151 182 199 250
389 367 334 311 298 257 227 201 141 146 132 121 139 152 156 154 145 159 160 202 240 203
345 311 277 265 212 209 211 186 158 139 110 109 102 118 138 146 146 220 228 233 200 152
306 272 257 266 265 192 155 159 138 105 91 85 105 123 111 110 143 192 179 157 135 133
334 287 277 281 237 191 167 164 117 99 75 72 97 93 95 140 219 220 186 170 142 121
338 330 295 261 200 181 165 146 107 64 47 21 85 113 166 204 214 219 207 176 177 171
304 336 340 304 293 199 166 121 88 72 30 53 148 183 187 192 200 198 167 161 164 150
488 561 559 470 404 263 128 79 92 101 114 116 174 230 236 225 206 196 171 144 149 139
693 728 755 615 333 105 33 85 109 151 168 190 273 285 304 273 223 201 157 154 155 133
819 712 658 580 189 97 79 93 114 133 164 266 300 277 295 300 246 205 170 162 148 139
703 724 680 346 164 71 60 82 132 148 179 318 311 289 302 256 220 199 150 134 134 124
876 783 353 94 62 53 82 97 126 166 208 257 273 247 261 232 209 163 138 129 140 131
609 320 101 83 66 36 40 106 127 150 191 212 216 188 175 177 166 140 135 126 107 120

GFSNIL_con_3kmhel_018.txt.gz
Helicity
505 442 396 379 376 330 274 223 223 213 214 305 170 170 144 144 132 130 126 116 117 130
438 446 412 396 355 274 229 154 205 242 244 212 165 172 134 139 143 138 118 104 134 170
412 398 378 363 286 209 192 242 266 257 253 177 152 148 164 129 150 143 133 137 171 147
452 410 370 332 305 309 286 272 249 245 219 190 157 127 128 114 107 135 175 173 156 142
524 487 464 396 336 365 310 258 271 213 167 129 105 82 85 87 118 128 148 158 154 119
525 456 429 387 356 333 301 303 288 205 162 146 104 104 101 112 166 171 165 167 161 152
499 458 413 384 413 372 357 397 250 199 97 135 105 85 157 188 181 188 193 191 184 171
461 414 464 513 488 560 454 366 308 125 155 122 100 123 199 223 211 202 193 188 193 165
476 551 666 753 777 826 782 598 170 109 139 114 146 157 226 273 260 227 232 227 215 178
681 834 863 911 1018 1065 714 222 85 112 93 116 169 155 267 292 271 262 205 185 197 167
931 957 983 975 1012 801 175 118 117 67 59 100 137 217 295 315 285 272 217 188 171 158
1051 1076 839 1032 631 154 94 124 114 69 69 116 158 228 267 292 288 256 197 176 152 141
959 638 706 443 135 149 194 106 44 66 107 107 160 194 224 259 257 239 201 155 135 124
593 709 274 205 141 173 89 63 60 89 103 122 170 200 180 203 239 222 200 151 131 133

GFSNIL_con_3kmhel_021.txt.gz
Helicity
459 491 500 494 459 436 435 382 332 342 270 128 196 263 174 203 197 171 140 118 116 127
484 522 576 563 552 525 454 411 361 294 179 246 207 228 235 195 167 165 150 144 112 134
492 539 576 636 611 521 530 482 391 252 281 255 220 288 215 152 161 176 145 116 133 145
580 589 590 566 496 508 455 381 332 281 239 240 225 204 138 184 181 191 121 134 126 101
538 526 536 480 433 452 384 351 301 290 298 237 239 135 152 185 186 156 121 113 130 119
462 486 488 438 425 398 396 352 364 387 362 454 148 124 148 127 121 128 126 134 145 133
444 442 411 421 408 399 445 415 456 399 474 158 105 136 108 121 150 159 155 171 183 169
409 416 440 431 465 469 483 454 514 633 308 83 137 136 131 181 212 204 198 221 221 198
454 459 503 588 589 608 650 696 654 513 99 87 140 87 111 217 268 263 263 247 227 203
611 641 652 752 882 931 860 778 487 158 116 142 89 68 98 187 306 314 295 261 234 212
683 812 948 1005 979 1049 921 399 372 135 151 99 70 69 100 211 294 308 287 262 223 220
839 927 952 947 734 801 398 300 174 188 132 96 80 84 120 248 289 293 262 232 232 218
849 926 877 630 613 312 211 225 204 174 113 90 85 92 125 211 278 273 236 229 216 174
742 507 407 329 183 207 214 194 170 134 109 97 96 108 132 189 267 241 260 238 224 194

GFSNIL_con_3kmhel_024.txt.gz
Helicity
308 366 403 451 469 441 443 447 462 446 383 312 236 251 253 223 194 236 203 170 182 192
407 422 452 459 475 508 489 485 415 447 387 361 308 234 155 237 242 190 172 169 168 171
392 452 498 567 548 519 536 513 466 311 352 344 221 201 258 233 144 173 179 175 153 142
379 436 470 498 503 532 536 437 396 371 379 262 247 279 328 176 134 170 175 156 125 129
408 414 431 451 463 468 428 419 391 357 294 331 309 344 236 107 146 200 199 156 152 129
444 428 428 453 413 413 445 440 433 388 403 333 415 264 75 105 190 182 165 179 175 146
431 431 372 369 434 451 456 442 371 367 420 487 486 108 85 167 167 154 172 178 179 187
374 355 378 404 441 461 455 466 431 570 619 626 208 89 149 166 149 164 189 212 207 212
321 382 398 448 460 455 472 522 566 700 815 345 161 105 127 116 152 191 249 265 255 224
395 454 472 499 579 663 718 698 724 942 343 206 155 132 120 71 154 209 243 290 284 260
411 424 466 592 695 685 712 859 864 471 221 201 179 156 87 78 136 203 238 284 273 272
382 462 581 701 711 799 980 441 357 231 225 182 139 94 77 101 166 198 214 242 260 255
432 535 494 632 613 394 234 201 209 203 162 135 132 90 80 111 199 191 207 221 227 191
212 195 185 158 138 144 149 157 154 146 129 138 144 133 107 111 219 205 222 240 245 225

GFSNIL_con_3kmhel_027.txt.gz
Helicity
258 311 331 328 354 405 386 340 350 333 325 370 260 148 174 177 136 181 193 177 170 174
270 289 345 347 370 396 387 380 378 364 378 367 177 220 173 116 196 176 182 177 164 155
270 274 356 349 337 372 388 377 378 364 379 171 246 181 227 257 218 220 144 162 160 139
312 281 309 322 340 374 409 442 365 435 231 268 287 284 282 262 208 132 114 150 139 114
258 277 284 309 348 411 403 386 357 344 370 397 373 359 366 330 142 74 113 128 151 125
216 229 215 222 261 289 337 399 313 326 434 284 339 342 383 241 64 69 105 131 157 124
200 193 191 163 181 270 333 387 329 390 308 335 519 381 393 98 10 62 138 132 128 126
180 193 211 234 316 348 355 379 404 481 568 684 532 560 135 50 88 121 143 128 135 154
149 159 203 268 299 317 351 412 451 703 713 687 439 297 116 105 126 149 142 132 123 169
145 171 204 240 279 320 385 528 677 720 579 665 293 144 148 128 187 133 122 122 139 171
164 192 217 262 324 416 535 680 578 613 386 262 209 145 134 129 88 105 103 126 131 152
171 196 210 257 267 322 380 367 289 227 198 196 160 115 101 103 116 118 116 124 128 152
178 197 203 199 150 109 133 128 134 136 148 120 97 93 90 108 142 126 137 133 147 168
132 117 106 112 110 116 119 115 111 106 104 107 108 103 107 122 150 144 144 160 166 182

GFSNIL_con_3kmhel_030.txt.gz
Helicity
143 198 178 192 299 305 330 415 369 382 227 253 350 263 262 161 179 120 142 158 139 164
168 200 271 237 287 294 321 321 413 363 285 357 282 280 232 193 161 168 162 136 160 134
157 149 213 188 261 304 303 286 318 348 343 400 281 337 162 202 228 180 238 119 131 142
120 222 226 238 211 189 192 248 362 496 554 312 253 181 275 201 248 234 144 103 96 151
142 142 153 153 168 170 199 315 408 393 284 281 191 298 293 251 318 329 113 47 100 129
115 136 147 169 189 215 249 299 285 292 276 335 261 316 470 545 369 153 50 54 84 138
121 139 152 177 179 180 180 200 252 270 344 321 285 472 493 550 175 80 64 96 103 130
146 144 144 147 152 183 200 225 215 257 378 314 367 583 568 291 103 95 92 104 119 119
159 149 155 160 158 165 187 209 279 370 491 626 499 717 234 162 118 102 102 126 137 95
167 156 146 147 150 173 209 273 342 398 396 460 433 332 181 153 144 130 126 130 112 100
166 174 180 192 204 216 230 245 243 261 273 303 219 187 155 124 113 123 94 91 85 98
210 223 217 198 159 148 123 143 173 154 130 130 102 133 94 94 138 126 107 104 95 102
209 213 190 134 106 86 95 105 122 125 119 97 94 70 93 110 140 139 150 134 130 136
213 186 148 127 121 108 98 91 102 98 91 86 91 95 133 149 180 189 197 196 184 179

GFSNIL_con_3kmhel_033.txt.gz
Helicity
98 91 117 213 238 299 259 220 166 286 393 426 473 442 370 345 221 175 64 128 193 154
141 169 156 205 227 254 312 385 308 298 378 468 444 454 418 307 187 147 131 206 247 154
146 127 158 228 237 261 255 262 301 352 358 411 466 521 356 272 197 106 269 295 213 145
137 157 197 271 191 181 228 236 269 308 331 471 558 484 310 269 148 262 312 406 230 50
188 256 265 244 168 188 188 169 231 298 365 447 468 317 221 292 226 264 391 270 70 55
222 194 190 168 168 223 229 269 364 428 351 371 308 184 285 206 297 417 399 87 44 25
156 150 155 176 198 210 255 290 294 286 294 252 269 292 255 429 618 398 159 57 57 73
154 148 156 169 160 147 166 167 177 194 193 254 249 272 390 481 304 170 99 65 79 86
192 185 212 252 281 256 230 217 186 164 168 243 343 411 312 264 196 168 147 149 112 109
198 226 242 239 230 239 228 212 225 220 256 293 291 242 251 253 210 177 159 147 120 112
225 235 226 242 247 229 205 175 154 147 134 139 164 188 147 137 163 151 130 82 91 115
198 210 228 249 237 203 183 159 157 148 141 133 102 142 128 135 116 117 116 109 109 125
222 243 271 269 245 227 192 185 154 147 122 99 86 84 110 135 158 148 157 141 135 154
267 248 225 191 170 158 138 112 113 98 105 115 136 200 276 249 193 220 186 185 189 214

GFSNIL_con_3kmhel_036.txt.gz
Helicity
136 126 120 35 109 307 293 389 386 326 333 404 542 482 432 549 502 488 343 266 184 120
230 209 182 64 74 331 431 455 363 325 374 336 404 421 501 549 497 336 262 215 120 174
386 374 228 96 84 352 440 373 318 316 300 404 374 424 472 512 422 377 202 235 302 340
351 414 191 116 312 358 288 223 235 247 366 416 365 431 479 467 368 185 257 549 360 358
256 227 293 328 309 255 229 208 218 283 349 344 409 422 448 374 286 338 229 372 391 232
340 336 320 325 292 236 204 187 218 288 360 443 389 317 316 297 256 243 461 382 246 137
301 187 187 204 259 304 303 317 343 385 451 377 301 246 253 190 244 372 308 253 173 154
207 177 199 232 231 236 235 256 272 287 286 265 236 221 199 277 318 291 262 197 181 133
232 225 207 249 246 224 221 218 233 213 209 213 213 225 306 333 270 252 222 198 154 116
303 312 293 281 294 319 300 243 219 216 216 302 286 308 296 276 278 234 181 131 117 114
220 227 252 313 326 294 278 274 253 237 224 217 197 198 174 175 178 145 111 109 103 116
240 282 285 255 236 220 195 193 184 149 131 156 196 147 150 150 123 124 140 132 133 157
259 284 316 312 288 271 257 242 231 243 217 193 192 182 216 164 196 217 182 143 123 114
368 276 236 215 232 233 223 218 199 167 147 163 270 297 290 261 194 177 151 139 139 145

GFSNIL_con_3kmhel_039.txt.gz
Helicity
107 127 148 199 238 209 185 150 208 286 337 385 458 487 475 441 394 404 477 418 273 341
173 137 257 295 274 159 390 299 171 327 358 416 469 441 417 388 407 474 455 339 260 255
265 234 281 301 203 174 265 362 313 377 417 401 370 374 344 388 445 456 385 339 247 248
299 344 317 374 397 243 229 330 345 347 282 306 325 336 353 382 396 390 329 268 296 363
435 563 383 399 354 211 315 301 277 233 262 301 344 332 340 350 346 303 305 301 409 358
326 255 216 262 274 288 295 215 209 244 274 312 323 329 312 285 315 254 300 326 358 244
340 354 389 335 313 271 252 257 259 277 318 329 323 282 247 263 249 246 255 271 239 247
380 360 315 275 275 284 292 290 300 341 371 360 314 270 249 249 264 284 237 244 233 214
321 312 310 289 278 288 275 245 277 302 296 289 262 243 252 268 279 264 253 231 196 146
404 374 355 336 312 267 270 254 249 251 246 244 263 284 298 301 271 259 213 175 144 112
395 396 393 357 335 321 268 241 235 252 264 295 264 289 267 257 215 190 150 125 132 174
360 371 341 311 286 285 281 257 249 234 249 249 207 215 228 211 196 185 217 202 178 162
311 306 284 273 270 253 245 255 261 277 283 289 289 254 236 254 236 230 197 182 157 171
339 317 328 327 323 314 313 308 272 280 330 336 356 373 350 294 234 203 179 148 135 126

GFSNIL_con_3kmhel_042.txt.gz
Helicity
40 21 -21 -26 20 70 81 111 239 222 178 192 202 264 391 449 427 411 370 332 346 386
109 116 88 71 138 214 178 148 272 222 254 204 274 290 445 491 413 417 390 353 381 357
116 136 145 174 219 259 283 282 197 133 209 223 220 372 464 428 391 401 382 382 409 322
242 204 260 306 325 368 415 305 22 80 173 204 279 321 347 373 372 363 350 342 339 319
290 383 435 339 352 488 287 261 80 105 145 222 329 323 295 335 320 330 332 313 306 285
298 315 357 379 344 430 322 204 204 210 252 250 255 291 305 316 303 295 305 301 310 268
279 262 176 218 370 338 291 300 253 248 262 274 303 288 302 298 263 275 277 280 271 251
174 166 170 356 412 328 264 263 281 330 332 312 310 302 293 264 286 296 269 287 263 236
249 291 324 317 349 339 340 354 349 332 336 337 314 276 264 262 260 272 280 269 278 291
399 378 397 394 401 368 347 324 299 308 317 325 295 247 249 285 315 319 309 309 313 280
439 444 415 370 328 339 290 293 296 309 297 301 281 290 339 407 386 373 354 315 276 252
379 369 310 320 307 307 331 317 308 276 274 296 321 357 389 389 360 342 325 301 270 242
315 307 303 279 284 294 301 297 285 305 338 384 387 356 318 310 310 350 308 290 274 272
308 272 248 274 288 296 332 366 394 443 439 464 416 398 368 334 323 306 287 250 223 212

GFSNIL_con_3kmhel_045.txt.gz
Helicity
-8 -44 -59 -82 -99 -80 -90 -92 23 51 120 180 218 147 147 205 183 215 261 273 342 337
64 31 -7 -37 -79 -75 -42 35 60 76 124 194 220 132 169 160 169 240 293 266 311 327
129 68 55 100 72 26 22 76 112 181 196 199 200 186 170 226 223 265 302 362 344 339
154 169 162 130 119 207 246 206 196 211 156 169 75 115 155 149 186 218 331 362 348 337
306 261 208 243 392 358 409 259 265 294 141 60 -60 0 61 172 244 274 350 359 359 394
535 411 263 201 378 333 292 282 463 171 -84 -23 51 131 194 252 294 311 316 336 312 285
532 480 315 263 268 318 380 358 318 211 209 139 196 196 243 267 294 309 301 301 312 288
417 406 351 329 291 296 305 311 333 310 286 245 282 301 300 295 316 321 318 294 291 314
448 447 373 292 322 333 321 347 377 365 371 354 317 292 300 332 323 295 292 310 360 428
391 352 363 342 329 318 392 384 363 352 350 334 301 296 311 335 324 320 340 389 450 464
352 362 372 389 370 378 360 350 353 354 310 326 318 322 352 365 387 418 444 463 459 441
363 376 365 366 376 404 397 384 332 282 320 361 373 362 386 432 477 525 545 508 454 388
291 287 303 328 365 387 374 336 372 400 387 395 410 401 427 445 451 460 431 404 377 337
301 310 337 356 340 335 358 430 464 497 522 547 506 471 436 417 381 394 400 372 346 308

GFSNIL_con_3kmhel_048.txt.gz
Helicity
15 -16 -53 -93 -105 -112 -133 -132 -123 -143 -70 8 55 110 168 188 153 138 187 178 183 192
74 68 35 19 -1 -40 -43 -39 -21 15 37 71 92 133 154 178 116 77 103 156 113 178
136 113 88 79 59 36 36 21 46 69 88 113 120 92 103 154 179 193 19 84 143 210
211 214 212 178 158 147 82 150 108 111 148 105 119 175 213 166 223 56 143 179 169 195
247 214 227 214 214 212 79 232 158 192 102 73 212 244 273 141 53 82 126 144 176 280
386 379 347 333 272 79 206 116 17 80 68 149 355 310 20 -4 42 66 126 224 243 289
476 508 454 368 216 123 171 146 130 204 235 161 290 243 156 150 139 182 255 271 272 287
429 424 397 308 248 206 186 213 197 219 228 255 237 220 234 218 230 252 266 260 287 306
272 344 315 260 234 219 229 196 210 252 301 351 321 291 266 273 299 307 308 328 377 427
273 307 287 252 240 236 276 306 289 301 332 303 283 246 261 291 326 335 344 390 426 471
293 307 306 320 322 372 375 339 323 308 346 316 274 288 330 377 380 415 422 421 440 447
298 395 399 339 339 352 332 346 347 346 344 337 343 345 378 440 480 518 523 518 496 471
325 313 314 312 336 366 401 427 442 495 463 429 402 375 399 428 455 492 507 527 502 463
285 274 278 310 316 379 467 524 526 526 495 473 442 436 410 393 392 401 439 455 444 414

GFSNIL_con_3kmhel_051.txt.gz
Helicity
67 55 39 32 9 -12 -64 -57 -20 -3 -1 -11 -9 4 25 36 28 75 72 73 98 150
53 56 34 5 -41 -27 -85 -83 -102 -103 -127 -106 -85 -28 34 71 85 71 60 127 138 120
66 64 68 68 55 33 -12 -37 -62 -70 -20 -0 3 10 56 112 104 81 141 172 149 183
123 118 110 104 88 104 106 135 124 135 113 118 110 137 152 132 134 206 165 198 234 82
184 176 148 120 85 97 117 58 62 124 149 150 153 140 177 183 230 251 234 142 84 94
248 228 211 211 219 229 175 155 139 132 162 207 107 123 173 185 234 209 215 87 58 105
272 290 287 255 235 232 197 186 164 147 131 123 87 90 109 94 117 160 118 115 150 214
217 215 229 257 248 238 205 211 203 141 77 71 76 100 133 146 184 215 205 200 208 212
152 174 212 240 263 238 196 161 151 164 123 112 136 127 190 274 217 205 273 304 346 390
154 170 193 188 175 204 164 134 131 111 117 151 172 209 276 345 298 303 339 404 453 477
157 153 139 149 143 159 154 153 180 201 251 291 272 242 276 336 343 381 399 414 404 429
170 154 161 194 283 331 304 313 320 321 328 290 266 285 393 433 467 525 541 470 451 465
240 276 304 282 316 371 392 391 386 420 388 367 364 377 360 422 468 504 494 509 534 537
315 330 323 344 356 392 413 449 478 524 555 562 487 410 384 386 357 372 425 481 482 454

GFSNIL_con_3kmhel_054.txt.gz
Helicity
89 55 81 123 128 88 129 144 89 122 41 28 37 74 50 37 33 30 40 37 63 75
34 32 61 76 93 95 124 133 95 29 25 0 16 31 61 52 45 53 54 56 74 112
48 39 21 37 79 123 107 124 128 126 120 121 117 115 107 106 101 109 130 130 118 144
46 47 41 30 17 37 81 123 110 113 94 107 157 205 175 151 155 183 188 197 194 179
57 62 69 72 74 58 51 38 45 63 64 55 66 106 147 146 172 163 151 199 206 192
111 118 115 110 95 94 90 79 83 44 78 63 62 131 169 162 202 137 161 155 188 255
168 168 161 122 91 106 116 114 101 113 111 103 87 129 83 201 196 97 100 141 155 157
187 152 127 132 103 101 122 135 109 115 128 106 88 123 126 137 133 112 128 143 159 156
86 97 103 97 81 90 114 142 152 148 160 168 173 167 185 208 151 106 119 222 259 275
86 75 62 68 86 97 113 117 156 179 149 124 127 205 212 132 107 130 168 310 372 415
101 91 97 104 100 97 111 129 135 176 159 150 138 163 199 234 260 343 338 335 361 455
116 120 136 159 168 152 148 196 250 269 277 267 297 261 353 419 427 430 470 457 434 490
140 140 156 170 279 362 331 349 362 419 404 343 332 348 411 468 459 503 532 575 570 558
195 236 386 408 419 463 431 435 427 456 478 474 432 417 403 384 407 461 528 529 570 583

GFSNIL_con_3kmhel_057.txt.gz
Helicity
92 110 44 108 103 66 26 72 84 53 36 56 60 60 75 95 38 79 114 69 89 94
78 67 57 51 67 81 66 52 29 98 132 131 129 127 165 184 158 149 148 125 118 126
105 96 59 30 66 79 72 64 93 86 130 151 120 137 130 167 145 140 151 166 142 144
86 80 63 45 40 49 66 90 84 119 121 145 143 118 127 133 120 138 148 176 180 180
106 101 99 81 64 67 59 61 76 83 114 114 109 93 105 116 136 140 156 170 214 250
153 136 135 135 111 106 105 106 89 110 133 145 146 107 125 129 137 176 203 176 170 239
177 204 181 158 148 145 148 147 155 152 149 149 153 169 191 194 148 153 205 158 251 295
232 222 170 150 139 146 152 192 195 195 195 184 192 211 230 233 215 254 255 198 177 222
194 226 228 221 214 194 180 168 174 188 205 226 264 268 279 248 277 277 243 248 183 194
196 177 197 219 198 194 198 192 157 171 211 227 253 321 353 333 288 277 279 285 304 334
135 147 178 185 172 167 176 160 172 168 176 196 212 259 320 302 264 238 295 369 427 451
138 163 168 186 193 182 189 193 190 186 186 215 283 335 273 319 462 515 533 534 491 460
128 152 156 187 224 242 256 349 519 492 449 439 365 320 261 392 510 591 616 618 584 528
115 152 188 197 218 484 622 664 643 636 596 522 437 416 434 441 479 551 631 643 630 626

GFSNIL_con_3kmhel_060.txt.gz
Helicity
124 105 129 118 133 107 90 60 11 -76 -115 -88 -75 -39 -44 26 87 81 61 75 38 95
174 163 181 124 111 135 112 84 -1 -83 -30 -7 -21 -5 69 80 117 115 139 136 176 167
166 180 158 133 137 125 116 81 38 -42 -20 43 38 79 70 82 85 152 166 151 154 198
132 135 150 134 140 131 106 120 77 52 33 25 30 47 105 90 114 143 182 198 237 234
128 120 141 137 115 107 96 92 106 115 98 73 94 110 143 145 159 188 188 195 190 186
194 187 159 145 149 136 101 128 124 134 142 169 160 165 193 208 197 203 215 206 204 223
265 230 199 187 169 163 157 152 169 181 175 173 197 236 238 247 261 271 274 271 271 242
281 242 195 175 185 203 189 192 189 199 205 217 237 222 244 297 304 287 273 273 259 253
186 222 223 221 241 236 228 220 228 230 244 254 259 261 297 321 315 292 277 270 273 295
179 181 206 250 264 265 275 297 287 270 275 249 245 254 275 300 287 283 306 307 321 357
216 202 204 243 269 264 280 309 307 286 290 270 225 200 216 263 269 259 253 280 286 287
179 225 207 221 246 238 244 265 281 271 242 221 194 283 220 275 347 505 525 480 445 449
123 188 220 231 229 211 226 212 287 538 576 550 518 456 361 454 521 567 572 582 579 556
139 181 189 207 221 262 411 603 654 718 724 661 608 554 512 483 512 561 640 595 565 546